Location: Goll?ig?dem
(16.6403°N, 80.7265°E)
Time: 18:59:40
(UTC+00:00)

Daily predictions for brighter satellites

Satellite Brightness Start Highest point End
(mag) Time Altitude Azimuth Time Altitude Azimuth Time Altitude Azimuth
FALCON 9 R/B 4.0 12:52:16 10° WNW 12:57:35 46° NNE 13:25:25 10° E
Lacrosse 5 3.2 13:05:19 10° NW 13:10:05 43° WSW 13:14:52 10° S
STARLINK-1178 4.5 13:06:20 10° NNW 13:10:06 33° NE 13:13:52 10° ESE
Cosmos 1271 Rocket 3.0 13:10:24 10° N 13:13:57 41° E 13:17:28 10° SSE
Cosmos 1733 3.7 13:10:33 10° SSE 13:14:04 37° E 13:17:33 10° NNE
STARLINK-1120 4.3 13:11:14 10° NNW 13:15:07 38° NE 13:18:59 10° ESE
USA 234 3.8 13:11:31 10° NNE 13:17:58 65° NW 13:24:25 10° SW
GPS 2-15 Rocket1 3.2 13:14:39 10° W 13:19:34 86° N 13:24:24 10° ENE
ADEOS Rocket 3.6 13:13:29 10° N 13:19:36 62° WNW 13:25:11 10° SSW
STARLINK-1131 4.1 13:16:07 10° NNW 13:20:05 43° NE 13:24:03 10° SE
Cosmos 1939 Rocket 2.9 13:18:05 10° SSE 13:22:02 56° ENE 13:25:56 10° N
SL-16 R/B 2.2 13:17:23 10° SSW 13:23:03 84° ESE 13:28:42 10° NNE
CSL-04 Rocket 3.8 13:19:46 10° SSE 13:24:55 50° ENE 13:30:01 10° N
STARLINK-1190 3.9 13:21:01 10° NNW 13:25:04 50° NE 13:29:06 10° SE
H-2A R/B 3.7 13:22:46 10° ESE 13:25:33 15° ENE 13:28:24 10° NE
GEOS 3 Rocket 4.1 13:22:34 10° SE 13:27:13 38° ENE 13:31:55 10° N
ATLAS 3B CENTAUR R/B 2.7 13:22:23 10° WNW 13:29:29 40° N 13:32:26 14° ENE
NOAA 11 4.2 13:27:19 10° SSE 13:32:44 86° W 13:38:09 10° NNW
CZ-2D R/B 3.1 13:29:54 10° SSE 13:33:43 78° E 13:37:32 10° N
Cosmos 1674 3.1 13:30:25 10° NNE 13:33:52 37° E 13:37:17 10° SSE
Cosmos 1766 3.9 13:30:32 10° SSW 13:34:27 60° W 13:38:23 10° N
SL-4 R/B 3.3 13:36:21 10° SSE 13:38:08 15° SE 13:38:08 15° SE
KORONAS-FOTON 4.1 13:36:32 10° NNE 13:40:07 41° E 13:43:41 10° SSE
S3M 4.4 13:36:26 10° SSW 13:42:41 69° W 13:49:01 10° N
ATLAS 5 CENTAUR R/B 1.8 13:41:06 10° WSW 13:44:34 74° SSE 13:53:25 16° E
HJ-1C 3.6 13:45:54 16° SE 13:48:15 45° ENE 13:51:26 10° N
Atlas Centaur 2 1.9 13:44:00 10° WNW 13:50:05 82° SSW 13:53:02 24° ESE
Cosmos 2251 Rocket 4.0 13:47:04 10° SSE 13:51:52 35° E 13:56:40 10° NE
SL-08 ROCKET BODY 4.4 13:47:16 10° N 13:53:09 56° E 13:58:57 10° SSE
Cosmos 1626 4.4 13:55:27 10° NNE 13:55:45 11° NE 13:55:45 11° NE
YAOGAN 1 4.0 13:55:42 10° S 13:59:44 40° W 14:03:47 10° NNW
Cosmos 1386 Rocket 4.3 13:55:48 10° N 14:01:47 71° E 14:07:46 10° S
Cosmos 1455 Rocket 4.3 13:58:18 10° SSW 14:02:22 41° W 14:06:27 10° NNW
ARGOS 3.9 14:02:36 30° E 14:03:10 31° ENE 14:07:51 10° NNE
NATO 3D Rocket 4.4 13:59:08 10° WNW 14:05:34 78° SSW 14:10:41 28° ESE
Lacrosse 4 Rocket 4.5 14:03:25 10° WNW 14:05:50 15° WSW 14:08:14 10° SW
CZ-2C R/B 4.4 14:08:30 10° NE 14:09:31 15° NE 14:09:31 15° NE
Cosmos 371 Rocket 3.5 14:09:04 10° NNW 14:13:51 69° WSW 14:18:29 11° S
Meteor 2-5 Rocket 3.8 14:08:41 10° N 14:14:14 77° W 14:19:44 10° S
Cosmos 2278 Rocket 2.4 14:09:46 10° NNW 14:15:25 73° WSW 14:20:56 11° S
USA 229 DEB 4.3 14:08:27 10° NNW 14:15:55 66° WSW 14:23:32 10° SSE
USA 229 4.3 14:08:32 10° NNW 14:16:01 66° WSW 14:23:39 10° SSE
CZ-2C R/B 3.2 14:16:27 46° E 14:16:58 48° ENE 14:21:48 10° N
NOSS 3-3 (A) 3.8 14:12:00 10° SSW 14:17:32 79° WNW 14:23:24 10° NNE
NOSS 3-3 (C) 3.7 14:12:06 10° SSW 14:17:39 80° WNW 14:23:30 10° NNE
GPS 2-17 Rocket1 3.6 14:14:01 10° W 14:18:43 49° SSW 14:19:41 43° SSE
MOS 1 4.4 14:19:34 46° ESE 14:20:32 51° ENE 14:25:58 10° N
Milstar 3 Cent rocket 4.2 14:13:26 10° WNW 14:22:30 78° SSW 14:33:50 29° SE
NOSS 3-1 (A) 4.2 14:15:46 10° NNW 14:24:16 89° WSW 14:31:19 19° SSE
Cosmos 1892 Rocket 4.4 14:21:10 10° NNW 14:25:31 51° W 14:29:50 10° SSW
Meteor 1-24 Rocket 3.5 14:20:56 10° N 14:26:18 83° W 14:30:07 19° S
OAO 3 Rocket 3.4 14:26:40 10° NW 14:31:07 56° NNE 14:31:07 56° NNE
CZ-3B Rocket 2.6 14:28:57 10° SW 14:31:22 34° SSW 14:31:22 34° SSW
Ariane Rocket 3.1 14:33:02 32° S 14:35:22 72° WSW 14:40:26 10° NNW
IRS-1A Rocket 4.2 14:33:20 33° S 14:35:56 83° WSW 14:41:35 10° NNW
Cosmos 1331 Rocket 3.8 14:32:42 10° NNW 14:37:34 78° NNE 14:37:34 78° NNE
Centaur D AC-28 2.3 14:42:50 10° WNW 14:45:41 50° WSW 14:45:41 50° WSW
Cosmos 1943 3.6 14:44:08 10° SSW 14:56:51 - NNE 14:48:14 51° SSW
Mugunghwa Rocket 4.1 14:50:22 10° WNW 14:58:08 83° SSW 14:58:19 83° S
CZ-3A R/B 2.9 14:42:06 10° WNW 15:02:18 68° N 15:02:39 67° NNE
H-2A R/B 3.2 15:03:24 36° SW 15:04:35 41° W 15:09:34 10° NNW
ATLAS 2AS CENTAUR RB 3.3 15:00:54 10° W 15:17:23 54° SW 15:17:23 54° SW
Cosmos 2227 Rocket 4.1 21:50:49 25° NE 21:50:49 25° NE 21:53:14 10° NNE
Cosmos 2219 Rocket 3.7 22:00:05 10° N 22:05:02 33° ENE 22:09:59 10° SE
BREEZE-M DEB (TANK) 4.4 22:10:34 67° NE 22:10:34 67° NE 22:22:57 10° NE
NOSS 3-2 (C) 4.0 22:12:44 47° ENE 22:12:44 47° ENE 22:17:09 10° NE
CZ-2C R/B 4.2 22:08:44 10° NNE 22:11:04 26° NE 22:11:04 26° NE
CENTAUR R/B 3.1 22:13:59 42° ESE 22:13:59 42° ESE 22:19:18 10° NE
Cosmos 2082 4.3 22:18:57 50° ESE 22:19:09 51° ESE 22:24:38 10° NNE
Cosmos 2333 Rocket 2.3 22:27:28 10° NNW 22:33:05 72° ENE 22:38:44 10° SSE
SWIFT 3.9 22:35:32 31° ESE 22:35:32 31° ESE 22:38:05 10° E
Cosmos 1634 Rocket 3.8 22:28:13 10° N 22:34:23 87° E 22:40:34 10° S
GPS 2-12 Rocket1 3.7 22:42:11 49° NE 22:42:11 49° NE 22:45:48 10° ENE
H-2A R/B 4.5 22:39:22 10° NE 22:42:43 25° E 22:45:57 10° SSE
PAYLOAD A 4.4 22:38:16 10° N 22:42:29 52° NNW 22:42:29 52° NNW
Meteor 2-4 Rocket 4.1 22:38:49 15° S 22:43:44 66° E 22:49:35 10° NNE
Hubble Space Telescope 1.9 22:45:13 39° NNE 22:45:13 39° NNE 22:48:52 10° E
Palapa 6 Rocket 3.7 22:47:36 48° SSE 22:47:36 48° SSE 22:52:21 10° E
ADEOS 4.1 22:55:11 10° N 22:59:10 39° NW 22:59:10 39° NW
Cosmos 2237 Rocket 3.9 22:55:04 10° N 23:00:09 34° ENE 23:05:14 10° SE
STARLINK-1046 4.4 22:59:09 38° SSE 23:00:14 48° SE 23:04:12 10° NE
EPKM 2.6 23:00:57 47° NNE 23:00:57 47° NNE 23:02:45 10° ENE
Cosmos 1125 Rocket 3.6 23:01:11 50° WNW 23:01:11 50° WNW 23:06:18 10° N
Spot 2 4.4 22:56:05 10° N 23:01:14 83° WNW 23:04:22 24° SSW
ATLAS 3B R/B 3.0 22:55:58 11° SSW 23:02:29 64° ESE 23:09:03 10° NNE
Chandra Rocket (1) 4.4 22:56:18 29° W 23:03:57 51° NNW 23:09:32 10° NE
Cosmos 1782 Rocket 3.3 23:00:04 10° N 23:04:24 83° W 23:08:43 10° S
STARLINK-1039 4.1 23:03:56 38° S 23:05:11 56° SE 23:09:14 10° NE
Cosmos 2297 Rocket 3.7 23:08:31 19° NW 23:08:31 19° NW 23:11:00 10° NNW
Cosmos 2221 Rocket 3.5 23:06:28 56° WSW 23:06:56 60° W 23:11:20 10° N
Okean 3 3.4 23:09:38 56° W 23:09:38 56° W 23:13:40 10° N
STARLINK-1045 3.9 23:08:45 38° SSW 23:10:09 65° SE 23:14:15 10° NE
Cosmos 2263 Rocket 4.4 23:07:24 10° SSE 23:11:51 25° ESE 23:16:20 10° NE
Meteor 1-31 Rocket 2.6 23:09:29 10° N 23:13:23 71° WNW 23:14:55 35° SSW
STARLINK-1050 3.6 23:13:34 37° SSW 23:15:08 78° SE 23:19:16 10° NE
Nadezhda 4 Rocket 3.9 23:10:50 10° SSW 23:17:02 69° W 23:23:18 10° N
Cosmos 1544 3.2 23:15:48 10° N 23:19:24 72° E 23:23:03 10° S
STARLINK-1055 3.5 23:18:21 34° SW 23:20:06 89° SE 23:24:14 10° NE
SeaSat 1 2.6 23:15:43 10° SSE 23:20:37 75° ENE 23:25:32 10° NNW
Meteor 2-9 Rocket 4.4 23:15:02 10° N 23:20:54 83° E 23:26:44 10° S
USA 234 3.4 23:14:58 10° SE 23:21:30 76° NE 23:28:01 10° NNW
Delta 142 4.0 23:22:48 31° W 23:24:40 50° NNW 23:28:45 10° NE
STARLINK-1022 3.5 23:23:08 30° SW 23:25:04 79° NW 23:29:11 10° NNE
GPS 2-18 Rocket1 3.4 23:23:56 32° WNW 23:25:35 62° N 23:29:25 10° E
SJ-12 4.4 23:22:38 10° NNE 23:26:40 61° E 23:30:40 10° S
Cosmos 1674 Rocket 3.5 23:24:29 10° S 23:28:57 88° E 23:33:23 10° N
STARLINK-1042 3.5 23:27:55 27° SW 23:30:02 68° NW 23:34:09 10° NNE
NOSS 0 Rocket 3.8 23:24:05 10° NNW 23:30:12 76° WSW 23:36:19 10° SSE
Sich 1 Rocket 3.5 23:26:35 10° NNW 23:30:52 56° W 23:35:09 10° S
Cosmos 2227 Rocket 3.9 23:32:41 13° WNW 23:32:41 13° WNW 23:34:40 10° NW
Cosmos 2279 Rocket 4.2 23:26:26 10° NNW 23:32:20 46° W 23:38:15 10° SSW
Yuri Rocket 4.1 23:28:59 15° NW 23:32:26 45° NNE 23:37:35 10° E
STARLINK-1056 3.7 23:32:42 24° SW 23:34:59 59° NW 23:39:04 10° NNE
COSMOS 2428 3.4 23:31:03 10° NW 23:35:50 29° WSW 23:40:36 10° SSW
ALOS 2.2 23:31:10 10° N 23:35:50 84° W 23:40:29 10° SSW
Cosmos 389 Rocket 4.4 23:39:44 15° NW 23:39:44 15° NW 23:40:56 10° NW
Okean O Rocket 4.0 23:35:52 10° NE 23:39:33 26° E 23:43:15 10° SSE
Cosmos 1867 4.1 23:34:28 10° SSW 23:39:48 62° ESE 23:45:09 10° NNE
STARLINK-1054 3.8 23:37:28 21° WSW 23:39:58 51° NW 23:44:00 10° NNE
Cosmos 2151 Rocket 4.1 23:38:17 10° N 23:42:37 62° E 23:46:57 10° SSE
Okean 2 Rocket 3.0 23:38:37 10° N 23:43:06 76° W 23:47:36 10° S
STARLINK-1062 4.0 23:42:16 18° WSW 23:44:57 44° NW 23:48:54 10° NNE
Cosmos 1975 3.7 23:43:04 10° NNW 23:46:30 27° W 23:49:57 10° SSW
SL-4 R/B 4.3 23:43:59 10° N 23:47:43 28° NE 23:51:40 10° ESE
Cosmos 2219 Rocket 3.4 23:44:54 10° WNW 23:48:37 18° WSW 23:52:21 10° SW
STARLINK-1053 4.2 23:47:03 16° WSW 23:49:56 38° NW 23:53:48 10° NNE
CZ-2C R/B 4.2 23:49:50 10° WNW 23:50:28 11° WNW 23:50:28 11° WNW
MOS 1-B 4.4 23:45:29 10° NNE 23:51:17 85° ESE 23:57:03 10° SSW
BREEZE-M DEB (TANK) 2.5 23:47:58 10° SW 23:51:54 61° SE 23:53:57 10° NE
STARLINK-1061 4.4 23:51:49 14° WSW 23:54:54 34° NW 23:58:40 10° NNE
CZ-3B R/B 0.9 23:56:34 12° NW 23:57:38 31° NNE 23:59:21 10° E
